Location: *
(51.1248°S, 108.4023°W)
Time: 04:20:49
(UTC+00:00)

SMAP - Pass Details

Date: 15 June 2021
Orbit: 681 x 683 km, 98.1° (Epoch: 31 July)

Event Time Altitude Azimuth Distance (km) Brightness Sun altitude
Rises 12:05:21 0° 27° (NNE) 3,048 6.8 -28.6°
Reaches altitude 10° 12:07:36 10° 30° (NNE) 2,139 6.0 -28.3°
Maximum altitude 12:12:13 62° 109° (ESE) 784 3.5 -27.5°
Enters shadow 12:12:49 56° 146° (SE) 827 3.5 -27.4°
